Time,TemperatureF,DewpointF,PressureIn,WindDirection,WindDirectionDegrees,WindSpeedMPH,WindSpeedGustMPH,Humidity,HourlyPrecipIn,Conditions,Clouds,dailyrainin,SoftwareType,DateUTC
2013-02-23 00:02:00,10.8,5.0,30.12,WNW,292,0.0,0.0,77,0.00,,---,0.00,VWS V14.01,2013-02-23 06:02:00,
2013-02-23 00:08:00,10.4,4.6,30.12,NW,315,0.0,0.0,77,0.00,,---,0.00,VWS V14.01,2013-02-23 06:08:00,
2013-02-23 00:13:00,10.2,4.5,30.12,NW,315,0.0,0.0,77,0.00,,---,0.00,VWS V14.01,2013-02-23 06:13:00,
2013-02-23 00:20:00,10.4,4.6,30.12,NW,315,0.0,0.0,77,0.00,,---,0.00,VWS V14.01,2013-02-23 06:20:00,
2013-02-23 00:26:00,10.2,4.5,30.12,West,270,0.0,0.0,77,0.00,,---,0.00,VWS V14.01,2013-02-23 06:26:00,
2013-02-23 00:32:00,10.6,4.8,30.12,West,270,0.0,0.9,77,0.00,,---,0.00,VWS V14.01,2013-02-23 06:32:00,
2013-02-23 00:37:00,10.6,4.8,30.12,West,270,0.0,2.2,77,0.00,,---,0.00,VWS V14.01,2013-02-23 06:37:00,
2013-02-23 00:43:00,10.4,4.6,30.12,West,270,0.0,0.0,77,0.00,,---,0.00,VWS V14.01,2013-02-23 06:43:00,
2013-02-23 00:48:00,10.0,4.3,30.12,West,270,0.0,0.0,77,0.00,,---,0.00,VWS V14.01,2013-02-23 06:48:00,
2013-02-23 00:53:00,9.9,4.1,30.12,West,270,0.0,0.0,77,0.00,,---,0.00,VWS V14.01,2013-02-23 06:53:00,
2013-02-23 00:58:00,9.9,4.1,30.12,West,270,0.0,0.0,77,0.00,,---,0.00,VWS V14.01,2013-02-23 06:58:00,
2013-02-23 01:04:00,9.7,3.9,30.12,West,270,0.0,0.0,77,0.00,,---,0.00,VWS V14.01,2013-02-23 07:04:00,
2013-02-23 01:09:00,9.5,3.8,30.12,NW,315,0.0,0.0,77,0.00,,---,0.00,VWS V14.01,2013-02-23 07:09:00,
2013-02-23 01:14:00,9.7,3.9,30.12,WSW,248,2.5,3.1,77,0.00,,---,0.00,VWS V14.01,2013-02-23 07:14:00,
2013-02-23 01:19:00,10.2,4.5,30.12,West,270,2.0,2.7,77,0.00,,---,0.00,VWS V14.01,2013-02-23 07:19:00,
2013-02-23 01:25:00,10.4,4.6,30.12,West,270,0.0,0.9,77,0.00,,---,0.00,VWS V14.01,2013-02-23 07:25:00,
2013-02-23 01:30:00,10.2,4.5,30.12,West,270,0.0,0.0,77,0.00,,---,0.00,VWS V14.01,2013-02-23 07:30:00,
2013-02-23 01:35:00,10.0,4.3,30.12,West,270,0.0,0.0,77,0.00,,---,0.00,VWS V14.01,2013-02-23 07:35:00,
2013-02-23 01:40:00,9.9,4.1,30.12,WSW,248,0.0,0.0,77,0.00,,---,0.00,VWS V14.01,2013-02-23 07:40:00,
2013-02-23 01:46:00,9.5,3.8,30.09,WSW,248,0.0,0.0,77,0.00,,---,0.00,VWS V14.01,2013-02-23 07:46:00,
2013-02-23 01:51:00,9.3,3.6,30.09,WSW,248,0.0,0.0,77,0.00,,---,0.00,VWS V14.01,2013-02-23 07:51:00,
2013-02-23 01:56:00,9.1,3.4,30.09,WNW,292,0.0,0.0,77,0.00,,---,0.00,VWS V14.01,2013-02-23 07:56:00,
2013-02-23 02:01:00,9.0,3.2,30.12,WNW,292,0.0,0.0,77,0.00,,---,0.00,VWS V14.01,2013-02-23 08:01:00,
2013-02-23 02:06:00,8.6,2.9,30.12,WNW,292,0.0,0.0,77,0.00,,---,0.00,VWS V14.01,2013-02-23 08:06:00,
2013-02-23 02:11:00,8.6,2.9,30.12,WNW,292,0.0,0.0,77,0.00,,---,0.00,VWS V14.01,2013-02-23 08:11:00,
2013-02-23 02:16:00,8.4,2.7,30.09,WNW,292,0.0,0.0,77,0.00,,---,0.00,VWS V14.01,2013-02-23 08:16:00,
2013-02-23 02:21:00,8.4,2.7,30.09,WNW,292,0.0,0.0,77,0.00,,---,0.00,VWS V14.01,2013-02-23 08:21:00,
2013-02-23 02:26:00,8.6,2.9,30.09,West,270,0.0,0.0,77,0.00,,---,0.00,VWS V14.01,2013-02-23 08:26:00,
2013-02-23 02:31:00,8.6,2.9,30.09,West,270,0.0,0.0,77,0.00,,---,0.00,VWS V14.01,2013-02-23 08:31:00,
2013-02-23 02:36:00,9.1,3.4,30.09,West,270,0.9,0.9,77,0.00,,---,0.00,VWS V14.01,2013-02-23 08:36:00,
2013-02-23 02:41:00,9.3,3.6,30.09,WNW,292,0.0,0.0,77,0.00,,---,0.00,VWS V14.01,2013-02-23 08:41:00,
2013-02-23 02:46:00,9.3,3.6,30.09,WNW,292,0.0,0.0,77,0.00,,---,0.00,VWS V14.01,2013-02-23 08:46:00,
2013-02-23 02:51:00,9.5,3.8,30.09,West,270,0.0,0.0,77,0.00,,---,0.00,VWS V14.01,2013-02-23 08:51:00,
2013-02-23 02:56:00,9.5,3.8,30.09,NW,315,0.0,0.0,77,0.00,,---,0.00,VWS V14.01,2013-02-23 08:56:00,
2013-02-23 03:01:00,9.7,3.9,30.09,NW,315,0.0,0.0,77,0.00,,---,0.00,VWS V14.01,2013-02-23 09:01:00,
2013-02-23 03:07:00,9.7,3.9,30.09,WNW,292,0.0,0.0,77,0.00,,---,0.00,VWS V14.01,2013-02-23 09:07:00,
2013-02-23 03:12:00,9.9,4.1,30.09,NW,315,0.0,0.0,77,0.00,,---,0.00,VWS V14.01,2013-02-23 09:12:00,
2013-02-23 03:18:00,10.0,4.3,30.09,West,270,0.0,0.0,77,0.00,,---,0.00,VWS V14.01,2013-02-23 09:18:00,
2013-02-23 03:23:00,9.9,4.1,30.09,NNW,338,0.0,0.0,77,0.00,,---,0.00,VWS V14.01,2013-02-23 09:23:00,
2013-02-23 03:28:00,9.9,4.1,30.09,NW,315,0.0,0.0,77,0.00,,---,0.00,VWS V14.01,2013-02-23 09:28:00,
2013-02-23 03:33:00,9.9,4.1,30.09,NW,315,0.0,0.0,77,0.00,,---,0.00,VWS V14.01,2013-02-23 09:33:00,
2013-02-23 03:38:00,9.9,4.1,30.09,NNW,338,0.0,0.0,77,0.00,,---,0.00,VWS V14.01,2013-02-23 09:38:00,
2013-02-23 03:43:00,9.7,3.9,30.09,WNW,292,0.0,0.0,77,0.00,,---,0.00,VWS V14.01,2013-02-23 09:43:00,
2013-02-23 03:48:00,9.9,4.1,30.09,WNW,292,2.0,2.7,77,0.00,,---,0.00,VWS V14.01,2013-02-23 09:48:00,
2013-02-23 03:53:00,10.0,4.3,30.09,North,0,0.0,1.1,77,0.00,,---,0.00,VWS V14.01,2013-02-23 09:53:00,
2013-02-23 03:58:00,10.2,4.5,30.06,NW,315,0.0,0.0,77,0.00,,---,0.00,VWS V14.01,2013-02-23 09:58:00,
2013-02-23 04:03:00,10.0,4.3,30.06,NW,315,0.0,0.0,77,0.00,,---,0.00,VWS V14.01,2013-02-23 10:03:00,
2013-02-23 04:08:00,10.2,4.5,30.06,NW,315,0.0,0.0,77,0.00,,---,0.00,VWS V14.01,2013-02-23 10:08:00,
2013-02-23 04:13:00,10.4,4.6,30.03,West,270,0.0,0.0,77,0.00,,---,0.00,VWS V14.01,2013-02-23 10:13:00,
2013-02-23 04:18:00,10.2,4.5,30.03,West,270,0.0,0.0,77,0.00,,---,0.00,VWS V14.01,2013-02-23 10:18:00,
2013-02-23 04:23:00,10.0,4.3,30.03,West,270,0.0,0.0,77,0.00,,---,0.00,VWS V14.01,2013-02-23 10:23:00,
2013-02-23 04:28:00,9.5,3.8,30.03,West,270,0.0,0.0,77,0.00,,---,0.00,VWS V14.01,2013-02-23 10:28:00,
2013-02-23 04:33:00,9.3,3.6,30.03,West,270,0.0,0.0,77,0.00,,---,0.00,VWS V14.01,2013-02-23 10:33:00,
2013-02-23 04:38:00,9.3,3.6,30.03,West,270,0.0,0.0,77,0.00,,---,0.00,VWS V14.01,2013-02-23 10:38:00,
2013-02-23 04:43:00,9.1,3.4,30.03,West,270,0.0,0.0,77,0.00,,---,0.00,VWS V14.01,2013-02-23 10:43:00,
2013-02-23 04:48:00,9.1,3.4,30.03,West,270,0.0,0.0,77,0.00,,---,0.00,VWS V14.01,2013-02-23 10:48:00,
2013-02-23 04:53:00,9.0,3.2,30.03,West,270,0.0,0.0,77,0.00,,---,0.00,VWS V14.01,2013-02-23 10:53:00,
2013-02-23 04:58:00,8.8,3.1,30.03,West,270,0.0,0.0,77,0.00,,---,0.00,VWS V14.01,2013-02-23 10:58:00,
2013-02-23 05:03:00,8.6,2.9,30.03,West,270,0.0,0.0,77,0.00,,---,0.00,VWS V14.01,2013-02-23 11:03:00,
2013-02-23 05:08:00,8.6,2.9,30.03,West,270,0.0,0.0,77,0.00,,---,0.00,VWS V14.01,2013-02-23 11:08:00,
2013-02-23 05:13:00,8.6,2.9,30.03,West,270,0.0,0.0,77,0.00,,---,0.00,VWS V14.01,2013-02-23 11:13:00,
2013-02-23 05:18:00,8.4,2.7,30.03,West,270,0.0,0.0,77,0.00,,---,0.00,VWS V14.01,2013-02-23 11:18:00,
2013-02-23 05:23:00,8.6,2.9,30.03,West,270,0.0,0.0,77,0.00,,---,0.00,VWS V14.01,2013-02-23 11:23:00,
2013-02-23 05:28:00,8.6,2.9,30.03,West,270,0.0,0.0,77,0.00,,---,0.00,VWS V14.01,2013-02-23 11:28:00,
2013-02-23 05:33:00,9.1,3.4,30.03,SW,225,0.0,0.0,77,0.00,,---,0.00,VWS V14.01,2013-02-23 11:33:00,
2013-02-23 05:38:00,9.5,3.8,30.03,SW,225,0.0,0.0,77,0.00,,---,0.00,VWS V14.01,2013-02-23 11:38:00,
2013-02-23 05:43:00,9.7,3.9,30.03,SW,225,0.0,0.0,77,0.00,,---,0.00,VWS V14.01,2013-02-23 11:43:00,
2013-02-23 05:48:00,9.9,4.1,30.03,SW,225,0.0,0.0,77,0.00,,---,0.00,VWS V14.01,2013-02-23 11:48:00,
2013-02-23 05:53:00,9.7,3.9,30.03,SW,225,0.0,0.0,77,0.00,,---,0.00,VWS V14.01,2013-02-23 11:53:00,
2013-02-23 05:58:00,9.7,3.9,30.06,SW,225,0.0,0.0,77,0.00,,---,0.00,VWS V14.01,2013-02-23 11:58:00,
2013-02-23 06:03:00,9.5,3.8,30.06,SW,225,0.0,0.0,77,0.00,,---,0.00,VWS V14.01,2013-02-23 12:03:00,
2013-02-23 06:08:00,9.1,3.4,30.06,SW,225,0.0,0.0,77,0.00,,---,0.00,VWS V14.01,2013-02-23 12:08:00,
2013-02-23 06:13:00,9.1,3.4,30.03,SW,225,0.0,0.0,77,0.00,,---,0.00,VWS V14.01,2013-02-23 12:13:00,
2013-02-23 06:18:00,9.3,3.6,30.03,South,180,0.0,0.0,77,0.00,,---,0.00,VWS V14.01,2013-02-23 12:18:00,
2013-02-23 06:23:00,9.1,3.4,30.03,South,180,0.0,0.0,77,0.00,,---,0.00,VWS V14.01,2013-02-23 12:23:00,
2013-02-23 06:28:00,9.3,3.6,30.03,SSW,202,0.0,0.0,77,0.00,,---,0.00,VWS V14.01,2013-02-23 12:28:00,
2013-02-23 06:33:00,9.5,3.8,30.03,SSW,202,0.0,0.0,77,0.00,,---,0.00,VWS V14.01,2013-02-23 12:33:00,
2013-02-23 06:38:00,9.3,3.6,30.03,SSW,202,0.0,0.0,77,0.00,,---,0.00,VWS V14.01,2013-02-23 12:38:00,
2013-02-23 06:43:00,9.1,3.4,30.03,SSW,202,0.0,0.0,77,0.00,,---,0.00,VWS V14.01,2013-02-23 12:43:00,
2013-02-23 06:48:00,8.8,3.1,30.03,SSW,202,0.0,0.0,77,0.00,,---,0.00,VWS V14.01,2013-02-23 12:48:00,
2013-02-23 06:53:00,8.4,2.7,30.03,SSW,202,0.0,0.0,77,0.00,,---,0.00,VWS V14.01,2013-02-23 12:53:00,
2013-02-23 06:58:00,8.1,2.4,30.03,SSW,202,0.0,0.0,77,0.00,,---,0.00,VWS V14.01,2013-02-23 12:58:00,
2013-02-23 07:03:00,8.1,2.4,30.03,SSW,202,0.0,0.0,77,0.00,,---,0.00,VWS V14.01,2013-02-23 13:03:00,
2013-02-23 07:08:00,7.9,2.2,30.03,South,180,0.0,1.1,77,0.00,,---,0.00,VWS V14.01,2013-02-23 13:08:00,
2013-02-23 07:13:00,8.2,2.5,30.06,South,180,0.0,0.0,77,0.00,,---,0.00,VWS V14.01,2013-02-23 13:13:00,
2013-02-23 07:18:00,8.6,2.9,30.06,South,180,0.0,0.0,77,0.00,,---,0.00,VWS V14.01,2013-02-23 13:18:00,
2013-02-23 07:23:00,9.3,3.6,30.06,South,180,0.0,0.0,77,0.00,,---,0.00,VWS V14.01,2013-02-23 13:23:00,
2013-02-23 07:28:00,10.2,4.5,30.06,South,180,0.0,0.0,77,0.00,,---,0.00,VWS V14.01,2013-02-23 13:28:00,
2013-02-23 07:33:00,10.8,5.0,30.06,South,180,0.0,0.0,77,0.00,,---,0.00,VWS V14.01,2013-02-23 13:33:00,
2013-02-23 07:38:00,11.5,5.7,30.06,South,180,0.0,0.0,77,0.00,,---,0.00,VWS V14.01,2013-02-23 13:38:00,
2013-02-23 07:43:00,12.2,6.4,30.06,South,180,0.0,0.0,77,0.00,,---,0.00,VWS V14.01,2013-02-23 13:43:00,
2013-02-23 07:48:00,12.6,6.7,30.06,SSW,202,0.0,3.1,77,0.00,,---,0.00,VWS V14.01,2013-02-23 13:48:00,
2013-02-23 07:53:00,13.1,7.3,30.06,South,180,0.9,0.9,77,0.00,,---,0.00,VWS V14.01,2013-02-23 13:53:00,
2013-02-23 07:58:00,13.6,7.8,30.06,SSW,202,0.0,0.0,77,0.00,,---,0.00,VWS V14.01,2013-02-23 13:58:00,
2013-02-23 08:03:00,14.2,9.2,30.06,SSE,158,1.1,2.7,80,0.00,,---,0.00,VWS V14.01,2013-02-23 14:03:00,
2013-02-23 08:08:00,14.7,9.4,30.06,South,180,1.1,1.6,79,0.00,,---,0.00,VWS V14.01,2013-02-23 14:08:00,
2013-02-23 08:13:00,15.4,9.8,30.06,SSW,202,2.7,2.9,78,0.00,,---,0.00,VWS V14.01,2013-02-23 14:13:00,
2013-02-23 08:18:00,16.2,10.2,30.06,South,180,0.0,0.0,77,0.00,,---,0.00,VWS V14.01,2013-02-23 14:18:00,
2013-02-23 08:23:00,16.7,10.8,30.06,South,180,3.8,3.8,77,0.00,,---,0.00,VWS V14.01,2013-02-23 14:23:00,
2013-02-23 08:28:00,17.6,11.3,30.06,SSE,158,0.0,1.6,76,0.00,,---,0.00,VWS V14.01,2013-02-23 14:28:00,
2013-02-23 08:33:00,18.1,11.3,30.06,SSE,158,1.6,3.4,74,0.00,,---,0.00,VWS V14.01,2013-02-23 14:33:00,
2013-02-23 08:38:00,18.3,10.8,30.06,SSW,202,2.7,6.0,72,0.00,,---,0.00,VWS V14.01,2013-02-23 14:38:00,
2013-02-23 08:43:00,18.1,9.7,30.06,SSW,202,4.0,4.3,69,0.00,,---,0.00,VWS V14.01,2013-02-23 14:43:00,
2013-02-23 08:48:00,19.8,11.6,30.06,South,180,1.3,2.7,70,0.00,,---,0.00,VWS V14.01,2013-02-23 14:48:00,
2013-02-23 08:53:00,20.5,11.9,30.06,South,180,3.6,3.6,69,0.00,,---,0.00,VWS V14.01,2013-02-23 14:53:00,
2013-02-23 08:58:00,20.7,10.8,30.06,South,180,1.3,3.8,65,0.00,,---,0.00,VWS V14.01,2013-02-23 14:58:00,
2013-02-23 09:03:00,20.7,9.7,30.06,South,180,3.1,3.1,62,0.00,,---,0.00,VWS V14.01,2013-02-23 15:03:00,
2013-02-23 09:08:00,20.7,9.7,30.06,South,180,1.3,3.8,62,0.00,,---,0.00,VWS V14.01,2013-02-23 15:08:00,
2013-02-23 09:13:00,21.7,10.7,30.06,South,180,2.7,3.8,62,0.00,,---,0.00,VWS V14.01,2013-02-23 15:13:00,
2013-02-23 09:18:00,22.8,11.4,30.06,South,180,2.9,3.4,61,0.00,,---,0.00,VWS V14.01,2013-02-23 15:18:00,
2013-02-23 09:23:00,22.5,10.3,30.06,SW,225,4.3,7.2,59,0.00,,---,0.00,VWS V14.01,2013-02-23 15:23:00,
2013-02-23 09:28:00,22.6,10.1,30.06,SSE,158,3.4,6.5,58,0.00,,---,0.00,VWS V14.01,2013-02-23 15:28:00,
2013-02-23 09:33:00,23.5,10.6,30.06,South,180,2.7,4.9,57,0.00,,---,0.00,VWS V14.01,2013-02-23 15:33:00,
2013-02-23 09:38:00,23.7,10.3,30.06,SSE,158,5.8,5.8,56,0.00,,---,0.00,VWS V14.01,2013-02-23 15:38:00,
2013-02-23 09:43:00,23.9,10.1,30.06,West,270,3.6,8.1,55,0.00,,---,0.00,VWS V14.01,2013-02-23 15:43:00,
2013-02-23 09:48:00,24.4,10.6,30.06,SW,225,3.8,4.7,55,0.00,,---,0.00,VWS V14.01,2013-02-23 15:48:00,
2013-02-23 09:53:00,26.1,12.1,30.06,SSE,158,6.3,6.3,55,0.00,,---,0.00,VWS V14.01,2013-02-23 15:53:00,
2013-02-23 09:58:00,26.2,11.9,30.09,SSW,202,2.7,3.4,54,0.00,,---,0.00,VWS V14.01,2013-02-23 15:58:00,
2013-02-23 10:03:00,27.0,12.1,30.09,South,180,2.5,4.3,53,0.00,,---,0.00,VWS V14.01,2013-02-23 16:03:00,
2013-02-23 10:09:00,27.9,13.0,30.09,SW,225,0.0,0.0,53,0.00,,---,0.00,VWS V14.01,2013-02-23 16:09:00,
2013-02-23 10:14:00,28.2,12.9,30.09,SSW,202,3.8,4.3,52,0.00,,---,0.00,VWS V14.01,2013-02-23 16:14:00,
2013-02-23 10:20:00,27.5,12.2,30.09,SSE,158,4.3,5.4,52,0.00,,---,0.00,VWS V14.01,2013-02-23 16:20:00,
2013-02-23 10:26:00,28.6,13.2,30.09,WSW,248,2.5,5.4,52,0.00,,---,0.00,VWS V14.01,2013-02-23 16:26:00,
2013-02-23 10:31:00,30.0,14.1,30.09,WSW,248,4.5,4.9,51,0.00,,---,0.00,VWS V14.01,2013-02-23 16:31:00,
2013-02-23 10:36:00,29.8,13.9,30.09,South,180,4.9,4.9,51,0.00,,---,0.00,VWS V14.01,2013-02-23 16:36:00,
2013-02-23 10:41:00,30.4,14.4,30.09,South,180,2.2,8.7,51,0.00,,---,0.00,VWS V14.01,2013-02-23 16:41:00,
2013-02-23 10:46:00,30.9,14.5,30.06,South,180,5.6,5.6,50,0.00,,---,0.00,VWS V14.01,2013-02-23 16:46:00,
2013-02-23 10:51:00,32.5,16.4,30.06,SSW,202,2.2,4.7,51,0.00,,---,0.00,VWS V14.01,2013-02-23 16:51:00,
2013-02-23 10:56:00,33.8,17.1,30.06,South,180,3.6,3.6,50,0.00,,---,0.00,VWS V14.01,2013-02-23 16:56:00,
2013-02-23 11:01:00,33.4,16.8,30.06,SSE,158,3.4,4.3,50,0.00,,---,0.00,VWS V14.01,2013-02-23 17:01:00,
2013-02-23 11:06:00,33.4,16.8,30.06,South,180,6.3,6.5,50,0.00,,---,0.00,VWS V14.01,2013-02-23 17:06:00,
2013-02-23 11:11:00,35.4,18.2,30.06,SSW,202,1.6,4.9,49,0.00,,---,0.00,VWS V14.01,2013-02-23 17:11:00,
2013-02-23 11:16:00,35.8,17.5,30.06,SSW,202,2.5,3.8,47,0.00,,---,0.00,VWS V14.01,2013-02-23 17:16:00,
2013-02-23 11:21:00,36.3,18.0,30.06,SSE,158,2.7,4.0,47,0.00,,---,0.00,VWS V14.01,2013-02-23 17:21:00,
2013-02-23 11:26:00,37.0,18.2,30.06,South,180,4.3,4.3,46,0.00,,---,0.00,VWS V14.01,2013-02-23 17:26:00,
2013-02-23 11:31:00,37.6,18.7,30.06,WSW,248,6.0,6.0,46,0.00,,---,0.00,VWS V14.01,2013-02-23 17:31:00,
2013-02-23 11:36:00,38.5,19.5,30.06,South,180,0.0,2.9,46,0.00,,---,0.00,VWS V14.01,2013-02-23 17:36:00,
2013-02-23 11:41:00,38.8,19.3,30.06,SSW,202,0.0,4.3,45,0.00,,---,0.00,VWS V14.01,2013-02-23 17:41:00,
2013-02-23 11:46:00,39.2,19.1,30.03,WSW,248,4.9,4.9,44,0.00,,---,0.00,VWS V14.01,2013-02-23 17:46:00,
2013-02-23 11:51:00,39.9,19.8,30.03,SSE,158,1.1,3.8,44,0.00,,---,0.00,VWS V14.01,2013-02-23 17:51:00,
2013-02-23 11:56:00,40.3,20.1,30.03,South,180,2.7,2.7,44,0.00,,---,0.00,VWS V14.01,2013-02-23 17:56:00,
2013-02-23 12:01:00,41.0,20.2,30.03,SW,225,1.1,3.8,43,0.00,,---,0.00,VWS V14.01,2013-02-23 18:01:00,
2013-02-23 12:06:00,42.1,21.2,30.03,WSW,248,3.4,3.4,43,0.00,,---,0.00,VWS V14.01,2013-02-23 18:06:00,
2013-02-23 12:11:00,41.2,19.9,30.03,South,180,2.0,3.8,42,0.00,,---,0.00,VWS V14.01,2013-02-23 18:11:00,
2013-02-23 12:17:00,41.9,20.5,30.03,SSW,202,3.4,3.4,42,0.00,,---,0.00,VWS V14.01,2013-02-23 18:17:00,
2013-02-23 12:22:00,41.0,19.7,30.03,South,180,2.9,5.8,42,0.00,,---,0.00,VWS V14.01,2013-02-23 18:22:00,
2013-02-23 12:26:00,42.1,20.7,30.00,SW,225,0.9,2.9,42,0.00,,---,0.00,VWS V14.01,2013-02-23 18:26:00,
2013-02-23 12:31:00,42.3,20.8,30.00,South,180,2.2,2.5,42,0.00,,---,0.00,VWS V14.01,2013-02-23 18:31:00,
2013-02-23 12:36:00,42.1,20.7,30.00,SW,225,1.3,2.5,42,0.00,,---,0.00,VWS V14.01,2013-02-23 18:36:00,
2013-02-23 12:41:00,41.0,19.1,30.03,SSE,158,2.5,6.0,41,0.00,,---,0.00,VWS V14.01,2013-02-23 18:41:00,
2013-02-23 12:46:00,40.3,19.0,30.03,SSW,202,5.8,7.8,42,0.00,,---,0.00,VWS V14.01,2013-02-23 18:46:00,
2013-02-23 12:51:00,40.5,19.2,30.03,SW,225,2.5,4.0,42,0.00,,---,0.00,VWS V14.01,2013-02-23 18:51:00,
2013-02-23 12:57:00,41.9,20.5,30.03,SSW,202,3.4,4.5,42,0.00,,---,0.00,VWS V14.01,2013-02-23 18:57:00,
2013-02-23 13:01:00,42.6,21.1,30.03,South,180,6.3,6.3,42,0.00,,---,0.00,VWS V14.01,2013-02-23 19:01:00,
2013-02-23 13:06:00,41.2,19.9,30.03,SSW,202,2.7,3.4,42,0.00,,---,0.00,VWS V14.01,2013-02-23 19:06:00,
2013-02-23 13:11:00,41.9,20.5,30.03,SW,225,3.4,4.3,42,0.00,,---,0.00,VWS V14.01,2013-02-23 19:11:00,
2013-02-23 13:16:00,41.7,19.8,30.03,SSW,202,2.0,3.4,41,0.00,,---,0.00,VWS V14.01,2013-02-23 19:16:00,
2013-02-23 13:21:00,41.5,19.6,30.03,SW,225,6.0,6.0,41,0.00,,---,0.00,VWS V14.01,2013-02-23 19:21:00,
2013-02-23 13:27:00,42.3,20.8,30.00,West,270,3.1,3.4,42,0.00,,---,0.00,VWS V14.01,2013-02-23 19:27:00,
2013-02-23 13:32:00,41.4,20.0,30.00,South,180,5.8,5.8,42,0.00,,---,0.00,VWS V14.01,2013-02-23 19:32:00,
2013-02-23 13:36:00,40.3,19.0,30.00,SSW,202,3.1,6.0,42,0.00,,---,0.00,VWS V14.01,2013-02-23 19:36:00,
2013-02-23 13:42:00,40.6,19.4,30.00,SSE,158,5.6,5.6,42,0.00,,---,0.00,VWS V14.01,2013-02-23 19:42:00,
2013-02-23 13:46:00,38.8,18.3,30.00,SSW,202,6.5,7.2,43,0.00,,---,0.00,VWS V14.01,2013-02-23 19:46:00,
2013-02-23 13:51:00,39.2,18.6,30.00,SSW,202,10.1,11.2,43,0.00,,---,0.00,VWS V14.01,2013-02-23 19:51:00,
2013-02-23 13:57:00,39.0,19.0,30.00,SSW,202,5.4,8.1,44,0.00,,---,0.00,VWS V14.01,2013-02-23 19:57:00,
2013-02-23 14:02:00,39.4,18.8,30.00,South,180,5.8,5.8,43,0.00,,---,0.00,VWS V14.01,2013-02-23 20:02:00,
2013-02-23 14:07:00,39.6,19.5,30.00,South,180,3.4,3.8,44,0.00,,---,0.00,VWS V14.01,2013-02-23 20:07:00,
2013-02-23 14:12:00,39.0,19.0,30.00,South,180,4.3,7.2,44,0.00,,---,0.00,VWS V14.01,2013-02-23 20:12:00,
2013-02-23 14:17:00,39.0,19.0,30.00,South,180,8.1,8.1,44,0.00,,---,0.00,VWS V14.01,2013-02-23 20:17:00,
2013-02-23 14:22:00,38.7,18.6,30.00,South,180,7.4,7.4,44,0.00,,---,0.00,VWS V14.01,2013-02-23 20:22:00,
2013-02-23 14:28:00,39.7,19.6,30.00,South,180,2.9,3.4,44,0.00,,---,0.00,VWS V14.01,2013-02-23 20:28:00,
2013-02-23 14:32:00,39.9,19.8,30.00,SSW,202,5.4,5.4,44,0.00,,---,0.00,VWS V14.01,2013-02-23 20:32:00,
2013-02-23 14:37:00,40.3,20.1,30.00,SSW,202,2.0,4.9,44,0.00,,---,0.00,VWS V14.01,2013-02-23 20:37:00,
2013-02-23 14:42:00,39.4,18.8,29.97,SW,225,5.4,6.0,43,0.00,,---,0.00,VWS V14.01,2013-02-23 20:42:00,
2013-02-23 14:47:00,39.2,19.1,29.97,WSW,248,3.8,5.8,44,0.00,,---,0.00,VWS V14.01,2013-02-23 20:47:00,
2013-02-23 14:52:00,39.4,19.3,29.97,South,180,2.9,7.6,44,0.00,,---,0.00,VWS V14.01,2013-02-23 20:52:00,
2013-02-23 14:57:00,39.7,19.6,29.97,SSE,158,4.3,5.6,44,0.00,,---,0.00,VWS V14.01,2013-02-23 20:57:00,
2013-02-23 15:02:00,40.1,20.0,29.97,South,180,3.6,6.5,44,0.00,,---,0.00,VWS V14.01,2013-02-23 21:02:00,
2013-02-23 15:07:00,39.4,18.8,29.97,South,180,2.9,7.2,43,0.00,,---,0.00,VWS V14.01,2013-02-23 21:07:00,
2013-02-23 15:13:00,38.7,18.6,29.97,SSE,158,4.3,8.7,44,0.00,,---,0.00,VWS V14.01,2013-02-23 21:13:00,
2013-02-23 15:17:00,38.3,18.3,29.97,SSW,202,7.6,8.7,44,0.00,,---,0.00,VWS V14.01,2013-02-23 21:17:00,
2013-02-23 15:22:00,38.1,18.1,29.97,South,180,4.0,7.4,44,0.00,,---,0.00,VWS V14.01,2013-02-23 21:22:00,
2013-02-23 15:28:00,39.0,19.5,29.97,SSW,202,2.7,4.9,45,0.00,,---,0.00,VWS V14.01,2013-02-23 21:28:00,
2013-02-23 15:33:00,38.8,19.3,29.97,SSE,158,2.9,7.6,45,0.00,,---,0.00,VWS V14.01,2013-02-23 21:33:00,
2013-02-23 15:38:00,38.1,18.7,29.97,South,180,7.6,10.7,45,0.00,,---,0.00,VWS V14.01,2013-02-23 21:38:00,
2013-02-23 15:43:00,37.8,18.3,29.97,SSW,202,4.3,9.4,45,0.00,,---,0.00,VWS V14.01,2013-02-23 21:43:00,
2013-02-23 15:48:00,37.8,18.3,29.97,SSE,158,5.6,9.6,45,0.00,,---,0.00,VWS V14.01,2013-02-23 21:48:00,
2013-02-23 15:54:00,37.6,18.7,29.97,South,180,7.6,9.2,46,0.00,,---,0.00,VWS V14.01,2013-02-23 21:54:00,
2013-02-23 15:59:00,37.0,18.2,29.97,SSW,202,7.2,8.5,46,0.00,,---,0.00,VWS V14.01,2013-02-23 21:59:00,
2013-02-23 16:04:00,37.4,18.5,29.97,SSW,202,1.3,7.6,46,0.00,,---,0.00,VWS V14.01,2013-02-23 22:04:00,
2013-02-23 16:09:00,37.4,19.0,29.97,South,180,10.1,10.1,47,0.00,,---,0.00,VWS V14.01,2013-02-23 22:09:00,
2013-02-23 16:14:00,37.0,18.7,29.97,SSW,202,8.1,8.1,47,0.00,,---,0.00,VWS V14.01,2013-02-23 22:14:00,
2013-02-23 16:19:00,36.9,19.0,29.97,SSW,202,5.8,8.1,48,0.00,,---,0.00,VWS V14.01,2013-02-23 22:19:00,
2013-02-23 16:25:00,36.5,19.2,29.97,SSE,158,3.1,6.0,49,0.00,,---,0.00,VWS V14.01,2013-02-23 22:25:00,
2013-02-23 16:30:00,36.3,19.0,29.97,South,180,6.3,8.5,49,0.00,,---,0.00,VWS V14.01,2013-02-23 22:30:00,
2013-02-23 16:35:00,36.1,19.3,29.97,SSE,158,1.3,5.6,50,0.00,,---,0.00,VWS V14.01,2013-02-23 22:35:00,
2013-02-23 16:40:00,36.3,19.5,29.97,SSW,202,3.8,6.5,50,0.00,,---,0.00,VWS V14.01,2013-02-23 22:40:00,
2013-02-23 16:46:00,36.1,19.3,29.97,SSW,202,4.3,7.2,50,0.00,,---,0.00,VWS V14.01,2013-02-23 22:46:00,
2013-02-23 16:51:00,35.6,18.8,29.97,South,180,4.0,5.4,50,0.00,,---,0.00,VWS V14.01,2013-02-23 22:51:00,
2013-02-23 16:56:00,35.8,19.0,29.97,South,180,7.4,7.4,50,0.00,,---,0.00,VWS V14.01,2013-02-23 22:56:00,
2013-02-23 17:01:00,35.4,18.6,29.97,South,180,5.6,8.7,50,0.00,,---,0.00,VWS V14.01,2013-02-23 23:01:00,
2013-02-23 17:07:00,35.4,19.1,29.97,SSE,158,5.4,5.8,51,0.00,,---,0.00,VWS V14.01,2013-02-23 23:07:00,
2013-02-23 17:12:00,35.2,18.9,29.97,SSE,158,3.1,4.9,51,0.00,,---,0.00,VWS V14.01,2013-02-23 23:12:00,
2013-02-23 17:17:00,34.9,18.6,29.97,SSE,158,4.0,7.8,51,0.00,,---,0.00,VWS V14.01,2013-02-23 23:17:00,
2013-02-23 17:22:00,34.7,18.9,29.97,South,180,6.0,7.4,52,0.00,,---,0.00,VWS V14.01,2013-02-23 23:22:00,
2013-02-23 17:28:00,34.5,18.7,29.97,SSW,202,6.5,6.5,52,0.00,,---,0.00,VWS V14.01,2013-02-23 23:28:00,
2013-02-23 17:33:00,34.2,18.4,29.97,SSE,158,4.0,5.8,52,0.00,,---,0.00,VWS V14.01,2013-02-23 23:33:00,
2013-02-23 17:38:00,34.0,18.7,29.97,South,180,3.8,6.0,53,0.00,,---,0.00,VWS V14.01,2013-02-23 23:38:00,
2013-02-23 17:43:00,33.8,18.9,29.97,SE,135,3.1,7.2,54,0.00,,---,0.00,VWS V14.01,2013-02-23 23:43:00,
2013-02-23 17:49:00,33.4,19.0,29.97,South,180,6.3,6.3,55,0.00,,---,0.00,VWS V14.01,2013-02-23 23:49:00,
2013-02-23 17:54:00,33.3,18.9,29.97,South,180,6.0,6.0,55,0.00,,---,0.00,VWS V14.01,2013-02-23 23:54:00,
2013-02-23 17:59:00,32.9,18.9,29.97,SSE,158,3.4,6.3,56,0.00,,---,0.00,VWS V14.01,2013-02-23 23:59:00,
2013-02-23 18:04:00,32.4,18.8,29.97,SSW,202,2.9,7.8,57,0.00,,---,0.00,VWS V14.01,2013-02-24 00:04:00,
2013-02-23 18:10:00,31.6,19.0,29.97,SSE,158,3.4,7.4,59,0.00,,---,0.00,VWS V14.01,2013-02-24 00:10:00,
2013-02-23 18:16:00,30.9,19.1,29.97,South,180,1.3,3.6,61,0.00,,---,0.00,VWS V14.01,2013-02-24 00:16:00,
2013-02-23 18:21:00,30.6,18.7,29.97,SSE,158,0.0,0.0,61,0.00,,---,0.00,VWS V14.01,2013-02-24 00:21:00,
2013-02-23 18:26:00,30.0,19.0,29.97,SSE,158,0.0,4.0,63,0.00,,---,0.00,VWS V14.01,2013-02-24 00:26:00,
2013-02-23 18:31:00,29.7,19.0,29.97,SSE,158,0.0,0.0,64,0.00,,---,0.00,VWS V14.01,2013-02-24 00:31:00,
2013-02-23 18:36:00,29.5,19.2,29.97,SSE,158,2.5,3.1,65,0.00,,---,0.00,VWS V14.01,2013-02-24 00:36:00,
2013-02-23 18:41:00,29.3,19.7,29.97,SE,135,2.0,2.2,67,0.00,,---,0.00,VWS V14.01,2013-02-24 00:41:00,
2013-02-23 18:46:00,29.1,19.9,29.97,SE,135,0.0,2.7,68,0.00,,---,0.00,VWS V14.01,2013-02-24 00:46:00,
2013-02-23 18:52:00,28.8,19.5,29.97,SSE,158,0.0,0.0,68,0.00,,---,0.00,VWS V14.01,2013-02-24 00:52:00,
2013-02-23 18:57:00,28.4,19.2,29.97,SSE,158,0.0,0.0,68,0.00,,---,0.00,VWS V14.01,2013-02-24 00:57:00,
2013-02-23 19:02:00,28.0,18.5,29.97,South,180,0.0,0.0,67,0.00,,---,0.00,VWS V14.01,2013-02-24 01:02:00,
2013-02-23 19:07:00,27.9,19.0,29.97,South,180,0.0,1.6,69,0.00,,---,0.00,VWS V14.01,2013-02-24 01:07:00,
2013-02-23 19:12:00,28.0,20.2,29.97,SSE,158,1.3,2.0,72,0.00,,---,0.00,VWS V14.01,2013-02-24 01:12:00,
2013-02-23 19:17:00,27.9,19.7,29.97,SSW,202,0.9,0.9,71,0.00,,---,0.00,VWS V14.01,2013-02-24 01:17:00,
2013-02-23 19:22:00,27.9,20.0,29.97,SSE,158,0.0,0.0,72,0.00,,---,0.00,VWS V14.01,2013-02-24 01:22:00,
2013-02-23 19:27:00,27.5,19.4,29.97,SSE,158,0.0,0.0,71,0.00,,---,0.00,VWS V14.01,2013-02-24 01:27:00,
2013-02-23 19:32:00,27.1,19.0,29.97,SSE,158,0.0,0.0,71,0.00,,---,0.00,VWS V14.01,2013-02-24 01:32:00,
2013-02-23 19:37:00,27.1,19.6,29.97,SSE,158,0.0,0.0,73,0.00,,---,0.00,VWS V14.01,2013-02-24 01:37:00,
2013-02-23 19:43:00,27.1,20.3,29.97,SE,135,0.0,3.4,75,0.00,,---,0.00,VWS V14.01,2013-02-24 01:43:00,
2013-02-23 19:48:00,27.1,20.0,29.97,SE,135,0.0,2.0,74,0.00,,---,0.00,VWS V14.01,2013-02-24 01:48:00,
2013-02-23 19:54:00,27.0,19.8,29.97,SSE,158,0.0,0.0,74,0.00,,---,0.00,VWS V14.01,2013-02-24 01:54:00,
2013-02-23 19:59:00,27.0,19.8,29.97,SSE,158,0.0,0.0,74,0.00,,---,0.00,VWS V14.01,2013-02-24 01:59:00,
2013-02-23 20:04:00,26.6,19.4,29.97,SE,135,0.0,0.0,74,0.00,,---,0.00,VWS V14.01,2013-02-24 02:04:00,
2013-02-23 20:09:00,26.6,19.8,29.97,South,180,0.0,0.0,75,0.00,,---,0.00,VWS V14.01,2013-02-24 02:09:00,
2013-02-23 20:14:00,26.2,19.1,29.97,South,180,0.0,0.0,74,0.00,,---,0.00,VWS V14.01,2013-02-24 02:14:00,
2013-02-23 20:19:00,26.1,19.2,29.97,South,180,0.0,0.0,75,0.00,,---,0.00,VWS V14.01,2013-02-24 02:19:00,
2013-02-23 20:24:00,25.7,18.6,29.97,South,180,0.0,0.0,74,0.00,,---,0.00,VWS V14.01,2013-02-24 02:24:00,
2013-02-23 20:30:00,25.3,18.5,29.97,South,180,0.0,0.0,75,0.00,,---,0.00,VWS V14.01,2013-02-24 02:30:00,
2013-02-23 20:35:00,25.2,18.4,29.97,South,180,0.0,0.0,75,0.00,,---,0.00,VWS V14.01,2013-02-24 02:35:00,
2013-02-23 20:40:00,25.2,18.0,29.97,SE,135,0.0,0.0,74,0.00,,---,0.00,VWS V14.01,2013-02-24 02:40:00,
2013-02-23 20:45:00,25.3,19.1,29.97,SE,135,0.0,0.0,77,0.00,,---,0.00,VWS V14.01,2013-02-24 02:45:00,
2013-02-23 20:51:00,25.2,19.6,29.97,SE,135,0.0,0.0,79,0.00,,---,0.00,VWS V14.01,2013-02-24 02:51:00,
2013-02-23 20:56:00,25.2,19.6,29.97,SE,135,0.0,0.0,79,0.00,,---,0.00,VWS V14.01,2013-02-24 02:56:00,
2013-02-23 21:01:00,25.2,19.6,29.97,SE,135,0.0,0.0,79,0.00,,---,0.00,VWS V14.01,2013-02-24 03:01:00,
2013-02-23 21:06:00,25.2,19.6,29.97,SSE,158,0.0,0.0,79,0.00,,---,0.00,VWS V14.01,2013-02-24 03:06:00,
2013-02-23 21:12:00,25.2,19.9,29.97,SE,135,0.0,0.0,80,0.00,,---,0.00,VWS V14.01,2013-02-24 03:12:00,
2013-02-23 21:17:00,25.3,20.3,29.97,SSE,158,0.0,0.0,81,0.00,,---,0.00,VWS V14.01,2013-02-24 03:17:00,
2013-02-23 21:22:00,25.3,20.3,29.97,SE,135,0.0,0.0,81,0.00,,---,0.00,VWS V14.01,2013-02-24 03:22:00,
2013-02-23 21:27:00,25.3,20.3,29.97,SSE,158,1.3,2.0,81,0.00,,---,0.00,VWS V14.01,2013-02-24 03:27:00,
2013-02-23 21:33:00,25.5,20.2,29.97,SSE,158,0.9,0.9,80,0.00,,---,0.00,VWS V14.01,2013-02-24 03:33:00,
2013-02-23 21:38:00,25.7,20.4,29.97,SE,135,0.0,0.0,80,0.00,,---,0.00,VWS V14.01,2013-02-24 03:38:00,
2013-02-23 21:43:00,25.7,20.4,29.94,South,180,0.0,3.8,80,0.00,,---,0.00,VWS V14.01,2013-02-24 03:43:00,
2013-02-23 21:48:00,25.7,20.1,29.94,SSE,158,0.0,0.0,79,0.00,,---,0.00,VWS V14.01,2013-02-24 03:48:00,
2013-02-23 21:54:00,25.9,20.0,29.94,SE,135,0.0,0.0,78,0.00,,---,0.00,VWS V14.01,2013-02-24 03:54:00,
2013-02-23 21:59:00,26.1,20.1,29.97,SSE,158,0.0,3.1,78,0.00,,---,0.00,VWS V14.01,2013-02-24 03:59:00,
2013-02-23 22:04:00,26.2,19.7,29.97,SSE,158,2.0,2.0,76,0.00,,---,0.00,VWS V14.01,2013-02-24 04:04:00,
2013-02-23 22:09:00,26.1,19.5,29.97,SE,135,0.0,0.0,76,0.00,,---,0.00,VWS V14.01,2013-02-24 04:09:00,
2013-02-23 22:15:00,26.2,19.7,29.97,South,180,0.0,2.0,76,0.00,,---,0.00,VWS V14.01,2013-02-24 04:15:00,
2013-02-23 22:20:00,26.2,19.7,29.97,SSE,158,0.0,3.6,76,0.00,,---,0.00,VWS V14.01,2013-02-24 04:20:00,
2013-02-23 22:25:00,26.4,19.9,29.97,SSE,158,0.0,2.0,76,0.00,,---,0.00,VWS V14.01,2013-02-24 04:25:00,
2013-02-23 22:30:00,26.4,19.6,29.97,SSE,158,0.0,1.3,75,0.00,,---,0.00,VWS V14.01,2013-02-24 04:30:00,
2013-02-23 22:35:00,26.4,19.6,29.97,SSE,158,4.0,4.0,75,0.00,,---,0.00,VWS V14.01,2013-02-24 04:35:00,
2013-02-23 22:40:00,26.4,19.9,29.97,South,180,2.5,3.8,76,0.00,,---,0.00,VWS V14.01,2013-02-24 04:40:00,
2013-02-23 22:45:00,26.4,19.9,29.94,South,180,1.1,2.2,76,0.00,,---,0.00,VWS V14.01,2013-02-24 04:45:00,
2013-02-23 22:50:00,26.6,20.1,29.94,South,180,1.3,2.9,76,0.00,,---,0.00,VWS V14.01,2013-02-24 04:50:00,
2013-02-23 22:55:00,26.6,20.1,29.94,South,180,2.5,2.5,76,0.00,,---,0.00,VWS V14.01,2013-02-24 04:55:00,
2013-02-23 23:00:00,26.8,20.2,29.97,SSE,158,0.0,2.7,76,0.00,,---,0.00,VWS V14.01,2013-02-24 05:00:00,
2013-02-23 23:01:00,26.8,20.2,29.97,South,180,1.1,3.4,76,0.00,,---,0.00,VWS V14.01,2013-02-24 05:01:00,
2013-02-23 23:05:00,26.8,19.9,29.97,SSE,158,1.6,2.7,75,0.00,,---,0.00,VWS V14.01,2013-02-24 05:05:00,
2013-02-23 23:07:00,27.0,20.4,29.97,South,180,3.1,3.6,76,0.00,,---,0.00,VWS V14.01,2013-02-24 05:07:00,
2013-02-23 23:12:00,27.0,20.1,29.97,SSE,158,0.9,0.9,75,0.00,,---,0.00,VWS V14.01,2013-02-24 05:12:00,
2013-02-23 23:18:00,27.1,20.6,29.97,ESE,112,1.1,4.3,76,0.00,,---,0.00,VWS V14.01,2013-02-24 05:18:00,
2013-02-23 23:23:00,27.1,20.3,29.97,SSE,158,2.9,2.9,75,0.00,,---,0.00,VWS V14.01,2013-02-24 05:23:00,
2013-02-23 23:28:00,27.1,20.3,29.97,SE,135,0.0,5.6,75,0.00,,---,0.00,VWS V14.01,2013-02-24 05:28:00,
2013-02-23 23:33:00,27.3,20.5,29.97,South,180,2.7,2.7,75,0.00,,---,0.00,VWS V14.01,2013-02-24 05:33:00,
2013-02-23 23:38:00,27.3,20.5,29.97,SSE,158,0.0,0.0,75,0.00,,---,0.00,VWS V14.01,2013-02-24 05:38:00,
2013-02-23 23:44:00,27.1,20.3,29.97,South,180,0.9,4.3,75,0.00,,---,0.00,VWS V14.01,2013-02-24 05:44:00,
2013-02-23 23:49:00,27.1,20.3,29.97,SSE,158,0.0,3.8,75,0.00,,---,0.00,VWS V14.01,2013-02-24 05:49:00,
2013-02-23 23:54:00,27.3,20.5,29.97,SE,135,3.8,4.9,75,0.00,,---,0.00,VWS V14.01,2013-02-24 05:54:00,